Time,TemperatureF,DewpointF,PressureIn,WindDirection,WindDirectionDegrees,WindSpeedMPH,WindSpeedGustMPH,Humidity,HourlyPrecipIn,Conditions,Clouds,dailyrainin,SoftwareType,DateUTC
2013-01-26 00:00:00,36.7,33.1,30.16,NNE,23,0.7,0.7,87,0.00,,,0.00,WUHU216HW,2013-01-26 05:00:00,
2013-01-26 00:02:00,36.7,32.9,30.16,NNE,23,0.9,0.9,86,0.00,,,0.00,WUHU216HW,2013-01-26 05:02:00,
2013-01-26 00:07:00,36.7,32.9,30.16,ESE,113,0.4,0.9,86,0.00,,,0.00,WUHU216HW,2013-01-26 05:07:00,
2013-01-26 00:12:00,36.5,32.9,30.16,East,90,0.0,0.4,87,0.00,,,0.00,WUHU216HW,2013-01-26 05:12:00,
2013-01-26 00:17:00,36.5,32.9,30.16,NNE,23,0.0,0.4,87,0.00,,,0.00,WUHU216HW,2013-01-26 05:17:00,
2013-01-26 00:22:00,36.5,32.9,30.16,NNE,23,0.0,0.7,87,0.00,,,0.00,WUHU216HW,2013-01-26 05:22:00,
2013-01-26 00:27:00,36.5,32.9,30.16,NNE,23,0.0,0.7,87,0.00,,,0.00,WUHU216HW,2013-01-26 05:27:00,
2013-01-26 00:32:00,36.5,32.9,30.16,ENE,68,0.0,0.7,87,0.00,,,0.00,WUHU216HW,2013-01-26 05:32:00,
2013-01-26 00:37:00,36.5,32.9,30.16,ESE,113,0.4,0.7,87,0.00,,,0.00,WUHU216HW,2013-01-26 05:37:00,
2013-01-26 00:42:00,36.5,32.9,30.16,NE,45,0.0,0.7,87,0.00,,,0.00,WUHU216HW,2013-01-26 05:42:00,
2013-01-26 00:47:00,36.5,32.9,30.16,ENE,68,0.9,0.9,87,0.00,,,0.00,WUHU216HW,2013-01-26 05:47:00,
2013-01-26 00:52:00,36.5,32.9,30.16,North,0,0.2,0.9,87,0.00,,,0.00,WUHU216HW,2013-01-26 05:52:00,
2013-01-26 00:57:00,36.5,32.9,30.16,ENE,68,0.4,1.6,87,0.00,,,0.00,WUHU216HW,2013-01-26 05:57:00,
2013-01-26 01:02:00,36.5,32.9,30.16,ESE,113,0.2,1.6,87,0.00,,,0.00,WUHU216HW,2013-01-26 06:02:00,
2013-01-26 01:07:00,36.5,32.9,30.16,ENE,68,1.1,1.1,87,0.00,,,0.00,WUHU216HW,2013-01-26 06:07:00,
2013-01-26 01:12:00,36.4,33.1,30.15,East,90,0.0,1.1,88,0.00,,,0.00,WUHU216HW,2013-01-26 06:12:00,
2013-01-26 01:17:00,36.5,32.9,30.16,East,90,0.4,1.1,87,0.00,,,0.00,WUHU216HW,2013-01-26 06:17:00,
2013-01-26 01:22:00,36.5,32.9,30.16,North,0,0.4,0.7,87,0.00,,,0.00,WUHU216HW,2013-01-26 06:22:00,
2013-01-26 01:27:00,36.5,32.9,30.16,NE,45,0.4,1.3,87,0.00,,,0.00,WUHU216HW,2013-01-26 06:27:00,
2013-01-26 01:32:00,36.5,32.9,30.15,NE,45,0.4,1.3,87,0.00,,,0.00,WUHU216HW,2013-01-26 06:32:00,
2013-01-26 01:37:00,36.5,33.3,30.16,North,0,0.4,1.1,88,0.00,,,0.00,WUHU216HW,2013-01-26 06:37:00,
2013-01-26 01:42:00,36.5,33.3,30.16,North,0,0.4,0.7,88,0.00,,,0.00,WUHU216HW,2013-01-26 06:42:00,
2013-01-26 01:47:00,36.5,33.3,30.16,SSE,158,0.4,0.4,88,0.00,,,0.00,WUHU216HW,2013-01-26 06:47:00,
2013-01-26 01:52:00,36.5,33.3,30.16,NW,315,0.0,0.4,88,0.00,,,0.00,WUHU216HW,2013-01-26 06:52:00,
2013-01-26 01:57:00,36.5,33.3,30.16,North,0,0.0,0.4,88,0.00,,,0.00,WUHU216HW,2013-01-26 06:57:00,
2013-01-26 02:02:00,36.7,33.5,30.17,NW,315,0.2,0.9,88,0.00,,,0.00,WUHU216HW,2013-01-26 07:02:00,
2013-01-26 02:07:00,36.7,33.1,30.17,North,0,0.4,1.1,87,0.00,,,0.00,WUHU216HW,2013-01-26 07:07:00,
2013-01-26 02:12:00,36.7,33.1,30.17,North,0,0.7,1.1,87,0.00,,,0.00,WUHU216HW,2013-01-26 07:12:00,
2013-01-26 02:17:00,36.7,33.1,30.17,ESE,113,0.4,1.1,87,0.00,,,0.00,WUHU216HW,2013-01-26 07:17:00,
2013-01-26 02:22:00,36.7,33.1,30.17,East,90,0.0,1.1,87,0.00,,,0.00,WUHU216HW,2013-01-26 07:22:00,
2013-01-26 02:27:00,36.9,33.7,30.17,NNW,338,0.0,0.4,88,0.00,,,0.00,WUHU216HW,2013-01-26 07:27:00,
2013-01-26 02:32:00,36.9,33.7,30.17,ENE,68,0.0,0.4,88,0.00,,,0.00,WUHU216HW,2013-01-26 07:32:00,
2013-01-26 02:37:00,36.9,33.3,30.18,East,90,0.4,0.4,87,0.00,,,0.00,WUHU216HW,2013-01-26 07:37:00,
2013-01-26 02:42:00,36.9,33.3,30.18,NNE,23,0.2,0.4,87,0.00,,,0.00,WUHU216HW,2013-01-26 07:42:00,
2013-01-26 02:47:00,36.9,33.3,30.18,East,90,0.0,0.7,87,0.00,,,0.00,WUHU216HW,2013-01-26 07:47:00,
2013-01-26 02:52:00,36.9,33.3,30.17,ESE,113,0.0,0.7,87,0.00,,,0.00,WUHU216HW,2013-01-26 07:52:00,
2013-01-26 02:57:00,36.9,33.3,30.17,East,90,0.4,0.4,87,0.00,,,0.00,WUHU216HW,2013-01-26 07:57:00,
2013-01-26 03:02:00,36.9,33.7,30.17,ESE,113,0.4,1.1,88,0.00,,,0.00,WUHU216HW,2013-01-26 08:02:00,
2013-01-26 03:07:00,36.9,33.7,30.18,North,0,0.9,1.1,88,0.00,,,0.00,WUHU216HW,2013-01-26 08:07:00,
2013-01-26 03:12:00,36.9,33.7,30.18,ENE,68,0.4,1.8,88,0.00,,,0.00,WUHU216HW,2013-01-26 08:12:00,
2013-01-26 03:17:00,36.9,33.7,30.18,North,0,0.0,1.8,88,0.00,,,0.00,WUHU216HW,2013-01-26 08:17:00,
2013-01-26 03:22:00,37.1,33.9,30.19,NNW,338,0.4,1.1,88,0.00,,,0.00,WUHU216HW,2013-01-26 08:22:00,
2013-01-26 03:27:00,37.1,33.9,30.18,ENE,68,0.9,1.8,88,0.00,,,0.00,WUHU216HW,2013-01-26 08:27:00,
2013-01-26 03:32:00,37.1,33.9,30.18,ENE,68,1.3,1.8,88,0.00,,,0.00,WUHU216HW,2013-01-26 08:32:00,
2013-01-26 03:37:00,37.1,34.1,30.19,SE,135,0.0,2.0,89,0.00,,,0.00,WUHU216HW,2013-01-26 08:37:00,
2013-01-26 03:42:00,37.1,34.1,30.19,WNW,293,0.0,2.0,89,0.00,,,0.00,WUHU216HW,2013-01-26 08:42:00,
2013-01-26 03:47:00,37.1,34.1,30.19,NE,45,0.4,1.3,89,0.00,,,0.00,WUHU216HW,2013-01-26 08:47:00,
2013-01-26 03:52:00,37.1,34.1,30.19,ESE,113,0.2,1.8,89,0.00,,,0.00,WUHU216HW,2013-01-26 08:52:00,
2013-01-26 03:57:00,37.1,34.1,30.19,North,0,1.1,1.8,89,0.00,,,0.00,WUHU216HW,2013-01-26 08:57:00,
2013-01-26 04:02:00,37.3,34.3,30.19,ENE,68,0.9,2.0,89,0.00,,,0.00,WUHU216HW,2013-01-26 09:02:00,
2013-01-26 04:07:00,37.1,34.1,30.19,East,90,1.1,3.4,89,0.00,,,0.00,WUHU216HW,2013-01-26 09:07:00,
2013-01-26 04:12:00,37.1,34.1,30.20,North,0,1.1,3.4,89,0.00,,,0.00,WUHU216HW,2013-01-26 09:12:00,
2013-01-26 04:17:00,37.3,34.3,30.20,NW,315,0.2,2.0,89,0.00,,,0.00,WUHU216HW,2013-01-26 09:17:00,
2013-01-26 04:22:00,37.3,34.0,30.20,North,0,0.0,1.8,88,0.00,,,0.00,WUHU216HW,2013-01-26 09:22:00,
2013-01-26 04:27:00,37.3,34.3,30.20,North,0,0.7,2.0,89,0.00,,,0.00,WUHU216HW,2013-01-26 09:27:00,
2013-01-26 04:32:00,37.3,34.0,30.20,North,0,0.2,2.2,88,0.00,,,0.00,WUHU216HW,2013-01-26 09:32:00,
2013-01-26 04:37:00,37.3,34.0,30.21,NW,315,0.7,2.2,88,0.00,,,0.00,WUHU216HW,2013-01-26 09:37:00,
2013-01-26 04:42:00,37.3,34.0,30.21,NNW,338,1.1,2.7,88,0.00,,,0.00,WUHU216HW,2013-01-26 09:42:00,
2013-01-26 04:47:00,37.3,34.0,30.20,NNE,23,1.3,2.7,88,0.00,,,0.00,WUHU216HW,2013-01-26 09:47:00,
2013-01-26 04:52:00,37.3,34.0,30.21,North,0,0.2,3.6,88,0.00,,,0.00,WUHU216HW,2013-01-26 09:52:00,
2013-01-26 04:57:00,37.3,34.0,30.20,NNW,338,1.3,3.6,88,0.00,,,0.00,WUHU216HW,2013-01-26 09:57:00,
2013-01-26 05:02:00,37.1,33.9,30.20,North,0,0.7,3.4,88,0.00,,,0.00,WUHU216HW,2013-01-26 10:02:00,
2013-01-26 05:07:00,37.3,33.7,30.21,NNE,23,0.4,2.2,87,0.00,,,0.00,WUHU216HW,2013-01-26 10:07:00,
2013-01-26 05:12:00,37.1,33.5,30.21,North,0,0.9,1.8,87,0.00,,,0.00,WUHU216HW,2013-01-26 10:12:00,
2013-01-26 05:17:00,37.1,33.5,30.21,NNW,338,0.0,2.9,87,0.00,,,0.00,WUHU216HW,2013-01-26 10:17:00,
2013-01-26 05:22:00,37.1,33.5,30.21,East,90,0.4,2.9,87,0.00,,,0.00,WUHU216HW,2013-01-26 10:22:00,
2013-01-26 05:27:00,37.1,33.9,30.21,ENE,68,0.4,1.1,88,0.00,,,0.00,WUHU216HW,2013-01-26 10:27:00,
2013-01-26 05:32:00,36.9,33.3,30.21,SSW,203,0.4,1.1,87,0.00,,,0.00,WUHU216HW,2013-01-26 10:32:00,
2013-01-26 05:37:00,36.9,33.3,30.21,North,0,0.7,2.7,87,0.00,,,0.00,WUHU216HW,2013-01-26 10:37:00,
2013-01-26 05:42:00,36.7,33.1,30.21,SSE,158,0.2,2.7,87,0.00,,,0.00,WUHU216HW,2013-01-26 10:42:00,
2013-01-26 05:47:00,36.7,33.1,30.21,NW,315,0.4,1.1,87,0.00,,,0.00,WUHU216HW,2013-01-26 10:47:00,
2013-01-26 05:52:00,36.5,32.9,30.21,North,0,0.2,1.3,87,0.00,,,0.00,WUHU216HW,2013-01-26 10:52:00,
2013-01-26 05:57:00,36.4,32.8,30.22,North,0,0.0,1.3,87,0.00,,,0.00,WUHU216HW,2013-01-26 10:57:00,
2013-01-26 06:02:00,36.2,32.6,30.22,NNE,23,0.2,0.4,87,0.00,,,0.00,WUHU216HW,2013-01-26 11:02:00,
2013-01-26 06:07:00,36.0,32.4,30.22,East,90,0.0,1.1,87,0.00,,,0.00,WUHU216HW,2013-01-26 11:07:00,
2013-01-26 06:12:00,35.8,32.2,30.22,North,0,0.0,1.1,87,0.00,,,0.00,WUHU216HW,2013-01-26 11:12:00,
2013-01-26 06:17:00,35.6,31.8,30.22,NNW,338,0.0,0.2,86,0.00,,,0.00,WUHU216HW,2013-01-26 11:17:00,
2013-01-26 06:22:00,35.6,31.8,30.22,NNE,23,0.4,0.4,86,0.00,,,0.00,WUHU216HW,2013-01-26 11:22:00,
2013-01-26 06:27:00,35.5,31.6,30.22,ENE,68,0.4,0.4,86,0.00,,,0.00,WUHU216HW,2013-01-26 11:27:00,
2013-01-26 06:32:00,35.3,31.4,30.22,North,0,0.0,0.4,86,0.00,,,0.00,WUHU216HW,2013-01-26 11:32:00,
2013-01-26 06:37:00,35.1,31.2,30.22,NNE,23,0.0,0.4,86,0.00,,,0.00,WUHU216HW,2013-01-26 11:37:00,
2013-01-26 06:42:00,35.1,31.2,30.22,NNW,338,0.0,0.2,86,0.00,,,0.00,WUHU216HW,2013-01-26 11:42:00,
2013-01-26 06:47:00,34.9,31.1,30.23,North,0,0.0,0.2,86,0.00,,,0.00,WUHU216HW,2013-01-26 11:47:00,
2013-01-26 06:52:00,34.9,31.1,30.23,North,0,0.0,0.7,86,0.00,,,0.00,WUHU216HW,2013-01-26 11:52:00,
2013-01-26 06:57:00,34.9,31.1,30.23,NNW,338,0.4,0.7,86,0.00,,,0.00,WUHU216HW,2013-01-26 11:57:00,
2013-01-26 07:02:00,34.9,31.1,30.23,NNW,338,0.0,0.7,86,0.00,,,0.00,WUHU216HW,2013-01-26 12:02:00,
2013-01-26 07:07:00,34.7,30.9,30.23,North,0,0.0,0.7,86,0.00,,,0.00,WUHU216HW,2013-01-26 12:07:00,
2013-01-26 07:12:00,34.7,30.9,30.23,NNW,338,0.2,1.1,86,0.00,,,0.00,WUHU216HW,2013-01-26 12:12:00,
2013-01-26 07:17:00,34.6,30.7,30.23,North,0,0.0,1.1,86,0.00,,,0.00,WUHU216HW,2013-01-26 12:17:00,
2013-01-26 07:22:00,34.4,30.5,30.23,NE,45,0.4,0.7,86,0.00,,,0.00,WUHU216HW,2013-01-26 12:22:00,
2013-01-26 07:27:00,34.4,30.5,30.23,North,0,0.0,0.4,86,0.00,,,0.00,WUHU216HW,2013-01-26 12:27:00,
2013-01-26 07:32:00,34.2,30.3,30.22,NW,315,0.0,0.4,86,0.00,,,0.00,WUHU216HW,2013-01-26 12:32:00,
2013-01-26 07:37:00,34.2,30.3,30.23,NNW,338,0.0,0.4,86,0.00,,,0.00,WUHU216HW,2013-01-26 12:37:00,
2013-01-26 07:42:00,34.0,30.2,30.23,NNE,23,0.0,0.4,86,0.00,,,0.00,WUHU216HW,2013-01-26 12:42:00,
2013-01-26 07:47:00,34.0,30.2,30.23,NNW,338,0.0,0.4,86,0.00,,,0.00,WUHU216HW,2013-01-26 12:47:00,
2013-01-26 07:52:00,34.0,30.2,30.23,NNW,338,0.0,0.0,86,0.00,,,0.00,WUHU216HW,2013-01-26 12:52:00,
2013-01-26 07:57:00,34.0,30.2,30.24,WNW,293,0.0,0.0,86,0.00,,,0.00,WUHU216HW,2013-01-26 12:57:00,
2013-01-26 08:02:00,34.0,30.2,30.24,WNW,293,0.0,0.4,86,0.00,,,0.00,WUHU216HW,2013-01-26 13:02:00,
2013-01-26 08:07:00,33.8,30.0,30.24,WNW,293,0.0,0.4,86,0.00,,,0.00,WUHU216HW,2013-01-26 13:07:00,
2013-01-26 08:12:00,33.7,29.8,30.24,SW,225,0.0,0.0,86,0.00,,,0.00,WUHU216HW,2013-01-26 13:12:00,
2013-01-26 08:17:00,33.7,29.8,30.24,SW,225,0.0,0.0,86,0.00,,,0.00,WUHU216HW,2013-01-26 13:17:00,
2013-01-26 08:22:00,33.8,30.0,30.24,SSW,203,0.0,0.0,86,0.00,,,0.00,WUHU216HW,2013-01-26 13:22:00,
2013-01-26 08:27:00,33.7,29.8,30.24,SSW,203,0.0,0.0,86,0.00,,,0.00,WUHU216HW,2013-01-26 13:27:00,
2013-01-26 08:32:00,33.8,30.0,30.25,SSW,203,0.0,0.0,86,0.00,,,0.00,WUHU216HW,2013-01-26 13:32:00,
2013-01-26 08:37:00,33.8,30.2,30.25,SSW,203,0.0,0.0,87,0.00,,,0.00,WUHU216HW,2013-01-26 13:37:00,
2013-01-26 08:42:00,34.0,30.4,30.26,SSW,203,0.0,0.0,87,0.00,,,0.00,WUHU216HW,2013-01-26 13:42:00,
2013-01-26 08:47:00,34.2,30.6,30.25,SSW,203,0.0,0.0,87,0.00,,,0.00,WUHU216HW,2013-01-26 13:47:00,
2013-01-26 08:52:00,34.4,30.8,30.25,SSW,203,0.0,0.0,87,0.00,,,0.00,WUHU216HW,2013-01-26 13:52:00,
2013-01-26 08:57:00,34.6,31.0,30.26,SSW,203,0.0,0.0,87,0.00,,,0.00,WUHU216HW,2013-01-26 13:57:00,
2013-01-26 09:02:00,34.9,31.3,30.26,WSW,248,0.0,0.0,87,0.00,,,0.00,WUHU216HW,2013-01-26 14:02:00,
2013-01-26 09:07:00,35.1,31.5,30.26,WSW,248,0.0,0.0,87,0.00,,,0.00,WUHU216HW,2013-01-26 14:07:00,
2013-01-26 09:12:00,35.3,31.7,30.26,WNW,293,0.0,0.7,87,0.00,,,0.00,WUHU216HW,2013-01-26 14:12:00,
2013-01-26 09:17:00,35.5,31.6,30.26,West,270,0.7,1.6,86,0.00,,,0.00,WUHU216HW,2013-01-26 14:17:00,
2013-01-26 09:22:00,35.6,31.8,30.26,WNW,293,0.0,1.6,86,0.00,,,0.00,WUHU216HW,2013-01-26 14:22:00,
2013-01-26 09:27:00,35.8,32.2,30.26,NNW,338,0.0,1.1,87,0.00,,,0.00,WUHU216HW,2013-01-26 14:27:00,
2013-01-26 09:32:00,35.8,32.2,30.26,NNW,338,0.0,1.1,87,0.00,,,0.00,WUHU216HW,2013-01-26 14:32:00,
2013-01-26 09:37:00,36.0,32.4,30.26,NW,315,0.9,1.3,87,0.00,,,0.00,WUHU216HW,2013-01-26 14:37:00,
2013-01-26 09:42:00,36.4,32.8,30.26,ENE,68,0.2,2.0,87,0.00,,,0.00,WUHU216HW,2013-01-26 14:42:00,
2013-01-26 09:47:00,36.4,32.8,30.27,NW,315,0.0,2.0,87,0.00,,,0.00,WUHU216HW,2013-01-26 14:47:00,
2013-01-26 09:52:00,36.5,32.9,30.27,NNE,23,0.4,1.1,87,0.00,,,0.00,WUHU216HW,2013-01-26 14:52:00,
2013-01-26 09:57:00,36.7,33.1,30.27,ESE,113,0.4,1.6,87,0.00,,,0.00,WUHU216HW,2013-01-26 14:57:00,
2013-01-26 10:02:00,36.9,33.3,30.27,ENE,68,1.8,2.2,87,0.00,,,0.00,WUHU216HW,2013-01-26 15:02:00,
2013-01-26 10:07:00,37.1,33.5,30.27,East,90,0.9,2.5,87,0.00,,,0.00,WUHU216HW,2013-01-26 15:07:00,
2013-01-26 10:12:00,37.3,33.4,30.27,North,0,0.2,2.5,86,0.00,,,0.00,WUHU216HW,2013-01-26 15:12:00,
2013-01-26 10:17:00,37.4,33.6,30.28,NNW,338,1.1,1.8,86,0.00,,,0.00,WUHU216HW,2013-01-26 15:17:00,
2013-01-26 10:22:00,37.6,33.8,30.28,North,0,1.1,2.2,86,0.00,,,0.00,WUHU216HW,2013-01-26 15:22:00,
2013-01-26 10:27:00,37.8,33.9,30.28,NW,315,2.7,3.4,86,0.00,,,0.00,WUHU216HW,2013-01-26 15:27:00,
2013-01-26 10:32:00,38.0,33.8,30.27,ESE,113,1.8,4.0,85,0.00,,,0.00,WUHU216HW,2013-01-26 15:32:00,
2013-01-26 10:37:00,38.3,33.9,30.27,ESE,113,0.9,4.0,84,0.00,,,0.00,WUHU216HW,2013-01-26 15:37:00,
2013-01-26 10:42:00,38.7,34.6,30.28,NW,315,1.1,3.8,85,0.00,,,0.00,WUHU216HW,2013-01-26 15:42:00,
2013-01-26 10:47:00,38.9,34.5,30.28,NE,45,1.6,3.8,84,0.00,,,0.00,WUHU216HW,2013-01-26 15:47:00,
2013-01-26 10:52:00,39.1,34.4,30.28,North,0,2.9,2.9,83,0.00,,,0.00,WUHU216HW,2013-01-26 15:52:00,
2013-01-26 10:57:00,39.1,34.4,30.28,North,0,1.8,3.1,83,0.00,,,0.00,WUHU216HW,2013-01-26 15:57:00,
2013-01-26 11:02:00,39.4,34.7,30.28,North,0,2.9,3.1,83,0.00,,,0.00,WUHU216HW,2013-01-26 16:02:00,
2013-01-26 11:07:00,39.6,34.6,30.28,NNW,338,0.7,2.9,82,0.00,,,0.00,WUHU216HW,2013-01-26 16:07:00,
2013-01-26 11:12:00,40.0,34.9,30.27,NW,315,1.1,2.9,82,0.00,,,0.00,WUHU216HW,2013-01-26 16:12:00,
2013-01-26 11:17:00,40.0,34.6,30.28,NW,315,1.8,2.7,81,0.00,,,0.00,WUHU216HW,2013-01-26 16:17:00,
2013-01-26 11:22:00,40.1,34.7,30.28,NW,315,2.0,3.4,81,0.00,,,0.00,WUHU216HW,2013-01-26 16:22:00,
2013-01-26 11:27:00,40.1,34.7,30.28,North,0,0.4,3.4,81,0.00,,,0.00,WUHU216HW,2013-01-26 16:27:00,
2013-01-26 11:32:00,40.1,34.5,30.28,North,0,1.8,3.4,80,0.00,,,0.00,WUHU216HW,2013-01-26 16:32:00,
2013-01-26 11:37:00,40.5,34.8,30.28,NNE,23,2.7,2.9,80,0.00,,,0.00,WUHU216HW,2013-01-26 16:37:00,
2013-01-26 11:42:00,40.7,34.7,30.28,ENE,68,2.7,2.7,79,0.00,,,0.00,WUHU216HW,2013-01-26 16:42:00,
2013-01-26 11:47:00,40.7,34.7,30.28,NW,315,2.9,4.5,79,0.00,,,0.00,WUHU216HW,2013-01-26 16:47:00,
2013-01-26 11:52:00,41.2,35.1,30.28,NNW,338,1.6,4.5,79,0.00,,,0.00,WUHU216HW,2013-01-26 16:52:00,
2013-01-26 11:57:00,41.4,35.0,30.28,North,0,3.4,3.8,78,0.00,,,0.00,WUHU216HW,2013-01-26 16:57:00,
2013-01-26 12:02:00,41.6,34.8,30.28,NNW,338,0.9,4.7,77,0.00,,,0.00,WUHU216HW,2013-01-26 17:02:00,
2013-01-26 12:07:00,41.4,34.7,30.28,NW,315,2.7,4.7,77,0.00,,,0.00,WUHU216HW,2013-01-26 17:07:00,
2013-01-26 12:12:00,41.8,35.0,30.28,NNE,23,3.4,4.0,77,0.00,,,0.00,WUHU216HW,2013-01-26 17:12:00,
2013-01-26 12:17:00,41.9,34.6,30.28,North,0,0.7,3.4,75,0.00,,,0.00,WUHU216HW,2013-01-26 17:17:00,
2013-01-26 12:22:00,42.1,34.4,30.27,NW,315,0.9,3.4,74,0.00,,,0.00,WUHU216HW,2013-01-26 17:22:00,
2013-01-26 12:27:00,42.5,34.7,30.27,East,90,2.2,3.4,74,0.00,,,0.00,WUHU216HW,2013-01-26 17:27:00,
2013-01-26 12:32:00,42.7,34.9,30.27,NNW,338,0.0,4.9,74,0.00,,,0.00,WUHU216HW,2013-01-26 17:32:00,
2013-01-26 12:37:00,42.8,34.5,30.27,ESE,113,1.1,4.9,72,0.00,,,0.00,WUHU216HW,2013-01-26 17:37:00,
2013-01-26 12:42:00,42.8,34.2,30.28,NNE,23,2.9,5.1,71,0.00,,,0.00,WUHU216HW,2013-01-26 17:42:00,
2013-01-26 12:47:00,43.0,34.3,30.26,NNW,338,2.5,5.1,71,0.00,,,0.00,WUHU216HW,2013-01-26 17:47:00,
2013-01-26 12:52:00,43.2,34.2,30.26,SSE,158,1.8,3.8,70,0.00,,,0.00,WUHU216HW,2013-01-26 17:52:00,
2013-01-26 12:57:00,43.4,34.7,30.26,ESE,113,0.4,3.8,71,0.00,,,0.00,WUHU216HW,2013-01-26 17:57:00,
2013-01-26 13:02:00,43.6,34.5,30.26,NE,45,0.4,4.0,70,0.00,,,0.00,WUHU216HW,2013-01-26 18:02:00,
2013-01-26 13:07:00,43.6,34.1,30.26,North,0,0.7,4.0,69,0.00,,,0.00,WUHU216HW,2013-01-26 18:07:00,
2013-01-26 13:12:00,43.6,33.8,30.25,North,0,1.8,3.8,68,0.00,,,0.00,WUHU216HW,2013-01-26 18:12:00,
2013-01-26 13:17:00,43.6,34.5,30.25,SSE,158,0.9,3.8,70,0.00,,,0.00,WUHU216HW,2013-01-26 18:17:00,
2013-01-26 13:22:00,43.7,34.7,30.25,West,270,0.9,2.0,70,0.00,,,0.00,WUHU216HW,2013-01-26 18:22:00,
2013-01-26 13:27:00,43.9,34.5,30.25,SE,135,0.2,4.9,69,0.00,,,0.00,WUHU216HW,2013-01-26 18:27:00,
2013-01-26 13:32:00,43.9,34.5,30.25,West,270,0.4,4.9,69,0.00,,,0.00,WUHU216HW,2013-01-26 18:32:00,
2013-01-26 13:37:00,44.3,34.4,30.25,ESE,113,2.7,3.1,68,0.00,,,0.00,WUHU216HW,2013-01-26 18:37:00,
2013-01-26 13:42:00,44.3,34.7,30.25,ESE,113,1.8,3.1,69,0.00,,,0.00,WUHU216HW,2013-01-26 18:42:00,
2013-01-26 13:47:00,44.6,35.1,30.25,SW,225,1.1,3.1,69,0.00,,,0.00,WUHU216HW,2013-01-26 18:47:00,
2013-01-26 13:52:00,45.0,35.1,30.25,NW,315,1.6,2.9,68,0.00,,,0.00,WUHU216HW,2013-01-26 18:52:00,
2013-01-26 13:57:00,45.5,35.6,30.24,NNW,338,0.9,4.7,68,0.00,,,0.00,WUHU216HW,2013-01-26 18:57:00,
2013-01-26 14:02:00,45.7,35.7,30.24,North,0,0.0,4.7,68,0.00,,,0.00,WUHU216HW,2013-01-26 19:02:00,
2013-01-26 14:07:00,46.1,36.1,30.24,West,270,2.7,2.7,68,0.00,,,0.00,WUHU216HW,2013-01-26 19:07:00,
2013-01-26 14:12:00,46.3,35.9,30.24,South,180,0.4,3.1,67,0.00,,,0.00,WUHU216HW,2013-01-26 19:12:00,
2013-01-26 14:17:00,46.4,36.1,30.24,North,0,1.8,3.1,67,0.00,,,0.00,WUHU216HW,2013-01-26 19:17:00,
2013-01-26 14:22:00,46.8,36.0,30.23,West,270,1.8,2.7,66,0.00,,,0.00,WUHU216HW,2013-01-26 19:22:00,
2013-01-26 14:27:00,47.0,35.8,30.23,NNE,23,0.4,2.7,65,0.00,,,0.00,WUHU216HW,2013-01-26 19:27:00,
2013-01-26 14:32:00,47.0,35.4,30.23,ESE,113,2.0,3.4,64,0.00,,,0.00,WUHU216HW,2013-01-26 19:32:00,
2013-01-26 14:37:00,46.8,35.2,30.23,North,0,1.6,3.4,64,0.00,,,0.00,WUHU216HW,2013-01-26 19:37:00,
2013-01-26 14:42:00,46.8,35.7,30.24,ENE,68,1.1,2.9,65,0.00,,,0.00,WUHU216HW,2013-01-26 19:42:00,
2013-01-26 14:47:00,46.4,34.9,30.23,East,90,2.2,3.1,64,0.00,,,0.00,WUHU216HW,2013-01-26 19:47:00,
2013-01-26 14:52:00,46.4,35.3,30.24,ENE,68,1.6,3.4,65,0.00,,,0.00,WUHU216HW,2013-01-26 19:52:00,
2013-01-26 14:57:00,46.4,35.3,30.23,NE,45,0.4,3.4,65,0.00,,,0.00,WUHU216HW,2013-01-26 19:57:00,
2013-01-26 15:02:00,46.8,35.2,30.23,East,90,1.3,3.1,64,0.00,,,0.00,WUHU216HW,2013-01-26 20:02:00,
2013-01-26 15:07:00,47.2,35.2,30.23,West,270,1.8,3.4,63,0.00,,,0.00,WUHU216HW,2013-01-26 20:07:00,
2013-01-26 15:12:00,47.5,35.9,30.23,SE,135,2.5,3.4,64,0.00,,,0.00,WUHU216HW,2013-01-26 20:12:00,
2013-01-26 15:17:00,47.9,35.9,30.24,SSE,158,0.7,3.4,63,0.00,,,0.00,WUHU216HW,2013-01-26 20:17:00,
2013-01-26 15:22:00,48.1,36.1,30.24,SE,135,2.0,3.4,63,0.00,,,0.00,WUHU216HW,2013-01-26 20:22:00,
2013-01-26 15:27:00,48.1,36.1,30.24,ESE,113,3.4,3.4,63,0.00,,,0.00,WUHU216HW,2013-01-26 20:27:00,
2013-01-26 15:32:00,48.4,36.4,30.23,SSW,203,1.3,3.4,63,0.00,,,0.00,WUHU216HW,2013-01-26 20:32:00,
2013-01-26 15:37:00,48.6,36.5,30.24,SE,135,2.2,3.8,63,0.00,,,0.00,WUHU216HW,2013-01-26 20:37:00,
2013-01-26 15:42:00,48.6,35.8,30.24,North,0,0.7,3.8,61,0.00,,,0.00,WUHU216HW,2013-01-26 20:42:00,
2013-01-26 15:47:00,48.6,36.2,30.24,SW,225,0.9,2.7,62,0.00,,,0.00,WUHU216HW,2013-01-26 20:47:00,
2013-01-26 15:52:00,48.6,35.8,30.24,SSW,203,0.9,2.7,61,0.00,,,0.00,WUHU216HW,2013-01-26 20:52:00,
2013-01-26 15:57:00,48.8,36.4,30.24,SSW,203,0.9,2.5,62,0.00,,,0.00,WUHU216HW,2013-01-26 20:57:00,
2013-01-26 16:02:00,49.3,37.3,30.24,SSW,203,1.1,2.5,63,0.00,,,0.00,WUHU216HW,2013-01-26 21:02:00,
2013-01-26 16:07:00,49.7,37.5,30.23,ENE,68,1.3,2.9,63,0.00,,,0.00,WUHU216HW,2013-01-26 21:07:00,
2013-01-26 16:12:00,49.7,37.2,30.24,NE,45,0.2,2.9,62,0.00,,,0.00,WUHU216HW,2013-01-26 21:12:00,
2013-01-26 16:17:00,49.9,37.4,30.24,East,90,2.2,2.5,62,0.00,,,0.00,WUHU216HW,2013-01-26 21:17:00,
2013-01-26 16:22:00,49.5,37.0,30.24,East,90,1.1,2.5,62,0.00,,,0.00,WUHU216HW,2013-01-26 21:22:00,
2013-01-26 16:27:00,49.5,36.6,30.24,ESE,113,0.4,2.7,61,0.00,,,0.00,WUHU216HW,2013-01-26 21:27:00,
2013-01-26 16:32:00,49.5,37.0,30.24,SSW,203,1.3,2.7,62,0.00,,,0.00,WUHU216HW,2013-01-26 21:32:00,
2013-01-26 16:37:00,49.9,37.0,30.23,NE,45,1.1,2.7,61,0.00,,,0.00,WUHU216HW,2013-01-26 21:37:00,
2013-01-26 16:42:00,49.7,36.8,30.24,North,0,1.3,2.7,61,0.00,,,0.00,WUHU216HW,2013-01-26 21:42:00,
2013-01-26 16:47:00,49.7,36.8,30.23,NW,315,1.6,2.5,61,0.00,,,0.00,WUHU216HW,2013-01-26 21:47:00,
2013-01-26 16:52:00,49.7,36.8,30.23,ESE,113,0.2,2.5,61,0.00,,,0.00,WUHU216HW,2013-01-26 21:52:00,
2013-01-26 16:57:00,49.5,36.6,30.23,NE,45,1.1,2.5,61,0.00,,,0.00,WUHU216HW,2013-01-26 21:57:00,
2013-01-26 17:02:00,49.7,36.8,30.23,ESE,113,1.1,1.8,61,0.00,,,0.00,WUHU216HW,2013-01-26 22:02:00,
2013-01-26 17:07:00,49.5,36.3,30.23,NNE,23,1.1,2.2,60,0.00,,,0.00,WUHU216HW,2013-01-26 22:07:00,
2013-01-26 17:12:00,49.3,36.1,30.23,NE,45,0.9,2.5,60,0.00,,,0.00,WUHU216HW,2013-01-26 22:12:00,
2013-01-26 17:17:00,49.3,36.5,30.24,SE,135,0.0,2.5,61,0.00,,,0.00,WUHU216HW,2013-01-26 22:17:00,
2013-01-26 17:22:00,49.3,36.5,30.23,ESE,113,0.4,1.8,61,0.00,,,0.00,WUHU216HW,2013-01-26 22:22:00,
2013-01-26 17:27:00,49.0,36.6,30.23,ESE,113,0.0,1.3,62,0.00,,,0.00,WUHU216HW,2013-01-26 22:27:00,
2013-01-26 17:32:00,49.0,36.6,30.24,ENE,68,0.0,0.4,62,0.00,,,0.00,WUHU216HW,2013-01-26 22:32:00,
2013-01-26 17:37:00,48.6,36.2,30.23,South,180,0.4,0.4,62,0.00,,,0.00,WUHU216HW,2013-01-26 22:37:00,
2013-01-26 17:42:00,48.2,35.8,30.23,South,180,0.0,0.4,62,0.00,,,0.00,WUHU216HW,2013-01-26 22:42:00,
2013-01-26 17:47:00,47.9,35.9,30.23,South,180,0.0,0.0,63,0.00,,,0.00,WUHU216HW,2013-01-26 22:47:00,
2013-01-26 17:52:00,47.7,35.7,30.23,South,180,0.0,0.0,63,0.00,,,0.00,WUHU216HW,2013-01-26 22:52:00,
2013-01-26 17:57:00,47.2,35.2,30.23,South,180,0.0,0.0,63,0.00,,,0.00,WUHU216HW,2013-01-26 22:57:00,
2013-01-26 18:02:00,46.8,34.8,30.23,South,180,0.0,0.0,63,0.00,,,0.00,WUHU216HW,2013-01-26 23:02:00,
2013-01-26 18:07:00,46.4,34.9,30.24,SSW,203,0.0,0.0,64,0.00,,,0.00,WUHU216HW,2013-01-26 23:07:00,
2013-01-26 18:12:00,46.1,34.6,30.24,SSW,203,0.0,0.0,64,0.00,,,0.00,WUHU216HW,2013-01-26 23:12:00,
2013-01-26 18:17:00,45.7,34.2,30.24,SSW,203,0.0,0.0,64,0.00,,,0.00,WUHU216HW,2013-01-26 23:17:00,
2013-01-26 18:22:00,45.5,34.0,30.24,SSW,203,0.0,0.0,64,0.00,,,0.00,WUHU216HW,2013-01-26 23:22:00,
2013-01-26 18:27:00,45.2,34.1,30.25,SSW,203,0.0,0.0,65,0.00,,,0.00,WUHU216HW,2013-01-26 23:27:00,
2013-01-26 18:32:00,45.0,33.9,30.25,SSW,203,0.0,0.0,65,0.00,,,0.00,WUHU216HW,2013-01-26 23:32:00,
2013-01-26 18:37:00,44.6,33.6,30.25,WSW,248,0.0,0.0,65,0.00,,,0.00,WUHU216HW,2013-01-26 23:37:00,
2013-01-26 18:42:00,44.3,33.6,30.26,WSW,248,0.0,0.0,66,0.00,,,0.00,WUHU216HW,2013-01-26 23:42:00,
2013-01-26 18:47:00,44.1,33.5,30.25,West,270,0.0,0.0,66,0.00,,,0.00,WUHU216HW,2013-01-26 23:47:00,
2013-01-26 18:52:00,43.7,33.1,30.25,ESE,113,0.4,0.7,66,0.00,,,0.00,WUHU216HW,2013-01-26 23:52:00,
2013-01-26 18:57:00,43.0,32.9,30.26,ESE,113,0.0,0.7,67,0.00,,,0.00,WUHU216HW,2013-01-26 23:57:00,
2013-01-26 19:02:00,42.3,32.5,30.26,SE,135,0.0,0.7,68,0.00,,,0.00,WUHU216HW,2013-01-27 00:02:00,
2013-01-26 19:07:00,41.9,31.8,30.26,West,270,0.0,0.0,67,0.00,,,0.00,WUHU216HW,2013-01-27 00:07:00,
2013-01-26 19:12:00,41.4,31.2,30.26,West,270,0.0,0.0,67,0.00,,,0.00,WUHU216HW,2013-01-27 00:12:00,
2013-01-26 19:17:00,41.2,31.5,30.26,West,270,0.0,0.4,68,0.00,,,0.00,WUHU216HW,2013-01-27 00:17:00,
2013-01-26 19:22:00,41.0,31.7,30.26,West,270,0.0,0.4,69,0.00,,,0.00,WUHU216HW,2013-01-27 00:22:00,
2013-01-26 19:27:00,40.9,31.5,30.26,West,270,0.0,0.0,69,0.00,,,0.00,WUHU216HW,2013-01-27 00:27:00,
2013-01-26 19:32:00,40.5,31.2,30.26,SW,225,0.0,0.0,69,0.00,,,0.00,WUHU216HW,2013-01-27 00:32:00,
2013-01-26 19:37:00,40.3,31.3,30.26,SSW,203,0.0,0.4,70,0.00,,,0.00,WUHU216HW,2013-01-27 00:37:00,
2013-01-26 19:42:00,40.0,31.3,30.26,East,90,1.1,1.6,71,0.00,,,0.00,WUHU216HW,2013-01-27 00:42:00,
2013-01-26 19:47:00,39.1,30.8,30.26,ESE,113,0.0,1.6,72,0.00,,,0.00,WUHU216HW,2013-01-27 00:47:00,
2013-01-26 19:52:00,38.7,30.8,30.26,WNW,293,0.0,1.1,73,0.00,,,0.00,WUHU216HW,2013-01-27 00:52:00,
2013-01-26 19:57:00,38.3,30.1,30.27,West,270,1.6,1.8,72,0.00,,,0.00,WUHU216HW,2013-01-27 00:57:00,
2013-01-26 20:02:00,38.0,30.1,30.26,West,270,1.1,1.8,73,0.00,,,0.00,WUHU216HW,2013-01-27 01:02:00,
2013-01-26 20:07:00,37.8,30.0,30.27,West,270,0.7,1.6,73,0.00,,,0.00,WUHU216HW,2013-01-27 01:07:00,
2013-01-26 20:12:00,37.8,30.2,30.27,ENE,68,0.4,1.3,74,0.00,,,0.00,WUHU216HW,2013-01-27 01:12:00,
2013-01-26 20:17:00,37.6,30.1,30.26,East,90,0.0,0.7,74,0.00,,,0.00,WUHU216HW,2013-01-27 01:17:00,
2013-01-26 20:22:00,37.4,29.9,30.27,West,270,0.9,1.1,74,0.00,,,0.00,WUHU216HW,2013-01-27 01:22:00,
2013-01-26 20:27:00,37.3,30.1,30.27,West,270,0.0,1.1,75,0.00,,,0.00,WUHU216HW,2013-01-27 01:27:00,
2013-01-26 20:32:00,37.1,29.9,30.27,West,270,0.0,0.9,75,0.00,,,0.00,WUHU216HW,2013-01-27 01:32:00,
2013-01-26 20:37:00,37.1,29.9,30.27,West,270,0.0,0.0,75,0.00,,,0.00,WUHU216HW,2013-01-27 01:37:00,
2013-01-26 20:42:00,36.9,29.7,30.27,West,270,0.0,0.0,75,0.00,,,0.00,WUHU216HW,2013-01-27 01:42:00,
2013-01-26 20:47:00,36.7,29.9,30.27,West,270,0.0,0.0,76,0.00,,,0.00,WUHU216HW,2013-01-27 01:47:00,
2013-01-26 20:52:00,36.4,29.2,30.28,West,270,0.0,0.4,75,0.00,,,0.00,WUHU216HW,2013-01-27 01:52:00,
2013-01-26 20:57:00,36.2,29.0,30.27,West,270,0.4,0.7,75,0.00,,,0.00,WUHU216HW,2013-01-27 01:57:00,
2013-01-26 21:02:00,36.0,28.8,30.27,West,270,0.4,1.1,75,0.00,,,0.00,WUHU216HW,2013-01-27 02:02:00,
2013-01-26 21:07:00,35.8,29.0,30.28,West,270,0.0,1.1,76,0.00,,,0.00,WUHU216HW,2013-01-27 02:07:00,
2013-01-26 21:12:00,35.6,28.8,30.28,West,270,0.0,0.4,76,0.00,,,0.00,WUHU216HW,2013-01-27 02:12:00,
2013-01-26 21:17:00,35.6,28.8,30.28,West,270,0.9,0.9,76,0.00,,,0.00,WUHU216HW,2013-01-27 02:17:00,
2013-01-26 21:22:00,35.6,29.1,30.28,West,270,0.0,1.1,77,0.00,,,0.00,WUHU216HW,2013-01-27 02:22:00,
2013-01-26 21:27:00,35.3,28.5,30.28,West,270,0.2,1.1,76,0.00,,,0.00,WUHU216HW,2013-01-27 02:27:00,
2013-01-26 21:32:00,34.9,28.1,30.29,East,90,0.0,0.4,76,0.00,,,0.00,WUHU216HW,2013-01-27 02:32:00,
2013-01-26 21:37:00,34.9,28.4,30.28,NNE,23,0.0,0.7,77,0.00,,,0.00,WUHU216HW,2013-01-27 02:37:00,
2013-01-26 21:42:00,34.6,28.4,30.28,ESE,113,0.7,1.1,78,0.00,,,0.00,WUHU216HW,2013-01-27 02:42:00,
2013-01-26 21:47:00,34.0,27.8,30.28,East,90,0.0,1.1,78,0.00,,,0.00,WUHU216HW,2013-01-27 02:47:00,
2013-01-26 21:52:00,33.7,27.8,30.28,ESE,113,0.4,0.7,79,0.00,,,0.00,WUHU216HW,2013-01-27 02:52:00,
2013-01-26 21:57:00,33.5,27.9,30.28,ESE,113,0.0,0.4,80,0.00,,,0.00,WUHU216HW,2013-01-27 02:57:00,
2013-01-26 22:02:00,33.5,27.9,30.28,SW,225,0.0,1.1,80,0.00,,,0.00,WUHU216HW,2013-01-27 03:02:00,
2013-01-26 22:07:00,33.3,27.8,30.28,WNW,293,0.7,1.1,80,0.00,,,0.00,WUHU216HW,2013-01-27 03:07:00,
2013-01-26 22:12:00,33.3,27.8,30.28,WNW,293,0.2,1.1,80,0.00,,,0.00,WUHU216HW,2013-01-27 03:12:00,
2013-01-26 22:17:00,33.1,27.6,30.28,WNW,293,0.7,0.7,80,0.00,,,0.00,WUHU216HW,2013-01-27 03:17:00,
2013-01-26 22:22:00,33.1,27.6,30.28,West,270,0.4,1.1,80,0.00,,,0.00,WUHU216HW,2013-01-27 03:22:00,
2013-01-26 22:27:00,33.1,27.6,30.29,West,270,0.0,1.1,80,0.00,,,0.00,WUHU216HW,2013-01-27 03:27:00,
2013-01-26 22:32:00,33.1,27.6,30.29,West,270,0.0,0.4,80,0.00,,,0.00,WUHU216HW,2013-01-27 03:32:00,
2013-01-26 22:37:00,32.9,27.5,30.29,ESE,113,0.0,0.4,80,0.00,,,0.00,WUHU216HW,2013-01-27 03:37:00,
2013-01-26 22:42:00,32.8,27.3,30.29,ESE,113,0.0,0.0,80,0.00,,,0.00,WUHU216HW,2013-01-27 03:42:00,
2013-01-26 22:47:00,32.8,27.3,30.29,SW,225,0.7,0.7,80,0.00,,,0.00,WUHU216HW,2013-01-27 03:47:00,
2013-01-26 22:52:00,32.6,27.1,30.29,West,270,0.0,0.7,80,0.00,,,0.00,WUHU216HW,2013-01-27 03:52:00,
2013-01-26 22:57:00,32.6,27.1,30.29,West,270,0.0,0.7,80,0.00,,,0.00,WUHU216HW,2013-01-27 03:57:00,
2013-01-26 23:02:00,32.4,27.5,30.29,ENE,68,1.1,1.8,82,0.00,,,0.00,WUHU216HW,2013-01-27 04:02:00,
2013-01-26 23:07:00,32.4,27.3,30.29,SSE,158,0.4,1.8,81,0.00,,,0.00,WUHU216HW,2013-01-27 04:07:00,
2013-01-26 23:12:00,32.2,27.1,30.29,South,180,0.0,1.1,81,0.00,,,0.00,WUHU216HW,2013-01-27 04:12:00,
2013-01-26 23:17:00,32.0,26.9,30.30,WSW,248,0.0,0.9,81,0.00,,,0.00,WUHU216HW,2013-01-27 04:17:00,
2013-01-26 23:22:00,32.0,26.9,30.29,West,270,0.0,0.2,81,0.00,,,0.00,WUHU216HW,2013-01-27 04:22:00,
2013-01-26 23:27:00,32.0,26.9,30.30,West,270,0.0,0.4,81,0.00,,,0.00,WUHU216HW,2013-01-27 04:27:00,
2013-01-26 23:32:00,32.0,26.9,30.29,SSW,203,0.0,0.4,81,0.00,,,0.00,WUHU216HW,2013-01-27 04:32:00,
2013-01-26 23:37:00,32.0,26.9,30.29,ESE,113,0.0,0.0,81,0.00,,,0.00,WUHU216HW,2013-01-27 04:37:00,
2013-01-26 23:42:00,31.9,26.7,30.29,ENE,68,0.0,0.0,81,0.00,,,0.00,WUHU216HW,2013-01-27 04:42:00,
2013-01-26 23:47:00,31.9,26.7,30.29,NW,315,0.2,0.2,81,0.00,,,0.00,WUHU216HW,2013-01-27 04:47:00,
2013-01-26 23:52:00,31.9,27.0,30.29,WNW,293,0.0,0.4,82,0.00,,,0.00,WUHU216HW,2013-01-27 04:52:00,
2013-01-26 23:57:00,31.7,26.6,30.30,West,270,0.4,1.1,81,0.00,,,0.00,WUHU216HW,2013-01-27 04:57:00,